| time (UTC) | temp F | wind direction | speed knots | gust knots | rain 1hr in | rain 24hr in | rain mn in | humidity % | barometer mb |
| 20260906131002 | 78 | 192 | 4.3 | 7.8 | 0.00 | 0.13 | 0.13 | 86 | 989.3 |
| 20260906130502 | 78 | 190 | 5.2 | 10.4 | 0.00 | 0.13 | 0.13 | 85 | 989.3 |
| 20260906130002 | 77 | 158 | 6.1 | 9.6 | 0.00 | 0.13 | 0.13 | 88 | 989.2 |
| 20260906125501 | 77 | 148 | 7.0 | 10.4 | 0.00 | 0.13 | 0.13 | 87 | 989.2 |
| 20260906125001 | 76 | 158 | 4.3 | 8.7 | 0.00 | 0.13 | 0.13 | 88 | 989.3 |
| 20260906124503 | 76 | 222 | 4.3 | 8.7 | 0.00 | 0.13 | 0.13 | 89 | 989.3 |
| 20260906124002 | 75 | 296 | 4.3 | 8.7 | 0.00 | 0.13 | 0.13 | 89 | 989.3 |
| 20260906123502 | 75 | 329 | 3.5 | 6.1 | 0.00 | 0.13 | 0.13 | 90 | 989.2 |
| 20260906123002 | 74 | 1 | 4.3 | 7.8 | 0.00 | 0.13 | 0.13 | 92 | 989.3 |
| 20260906122502 | 74 | 305 | 5.2 | 10.4 | 0.00 | 0.13 | 0.13 | 93 | 989.3 |
| 20260906122002 | 74 | 316 | 5.2 | 7.8 | 0.00 | 0.13 | 0.13 | 93 | 989.2 |
| 20260906121503 | 74 | 318 | 3.5 | 7.8 | 0.00 | 0.13 | 0.13 | 92 | 989.1 |
| 20260906121002 | 74 | 317 | 4.3 | 6.1 | 0.00 | 0.13 | 0.13 | 92 | 989.1 |
| 20260906120502 | 74 | 318 | 4.3 | 7.8 | 0.00 | 0.13 | 0.13 | 93 | 989.0 |
| 20260906120002 | 73 | 316 | 6.1 | 7.0 | 0.00 | 0.13 | 0.13 | 93 | 988.9 |
| 20260906115502 | 73 | 318 | 4.3 | 7.8 | 0.00 | 0.13 | 0.13 | 94 | 988.8 |
| 20260906115002 | 73 | 317 | 4.3 | 7.8 | 0.00 | 0.13 | 0.13 | 94 | 988.7 |
| 20260906114502 | 73 | 317 | 3.5 | 7.8 | 0.00 | 0.13 | 0.13 | 94 | 988.6 |
| 20260906114002 | 73 | 318 | 4.3 | 7.8 | 0.00 | 0.13 | 0.13 | 94 | 988.6 |
| 20260906113503 | 73 | 319 | 3.5 | 6.1 | 0.00 | 0.13 | 0.13 | 94 | 988.6 |
| 20260906113002 | 73 | 316 | 4.3 | 6.1 | 0.00 | 0.13 | 0.13 | 94 | 988.6 |
| 20260906112502 | 73 | 319 | 4.3 | 6.1 | 0.00 | 0.13 | 0.13 | 94 | 988.6 |
| 20260906112002 | 73 | 318 | 6.1 | 8.7 | 0.00 | 0.13 | 0.13 | 94 | 988.6 |
| 20260906111503 | 73 | 318 | 5.2 | 7.0 | 0.00 | 0.13 | 0.13 | 95 | 988.5 |
| 20260906111002 | 73 | 317 | 5.2 | 7.0 | 0.00 | 0.13 | 0.13 | 95 | 988.4 |
| 20260906110502 | 73 | 317 | 4.3 | 7.8 | 0.00 | 0.13 | 0.13 | 95 | 988.4 |
| 20260906110002 | 73 | 317 | 4.3 | 5.2 | 0.00 | 0.13 | 0.13 | 95 | 988.4 |
| 20260906105502 | 73 | 319 | 4.3 | 7.8 | 0.00 | 0.13 | 0.13 | 94 | 988.4 |
| 20260906105002 | 73 | 319 | 6.1 | 8.7 | 0.00 | 0.13 | 0.13 | 94 | 988.4 |
| 20260906104502 | 73 | 319 | 5.2 | 7.8 | 0.00 | 0.13 | 0.13 | 94 | 988.3 |
| 20260906104003 | 73 | 319 | 6.1 | 8.7 | 0.00 | 0.13 | 0.13 | 94 | 988.4 |
| 20260906103502 | 73 | 319 | 6.1 | 7.8 | 0.00 | 0.13 | 0.13 | 93 | 988.4 |
| 20260906103003 | 73 | 319 | 5.2 | 7.8 | 0.00 | 0.13 | 0.13 | 93 | 988.4 |
| 20260906102502 | 73 | 317 | 4.3 | 7.8 | 0.00 | 0.13 | 0.13 | 93 | 988.3 |
| 20260906102002 | 73 | 318 | 4.3 | 8.7 | 0.00 | 0.13 | 0.13 | 93 | 988.4 |
| 20260906101502 | 73 | 318 | 6.1 | 8.7 | 0.00 | 0.13 | 0.13 | 92 | 988.4 |
| 20260906101002 | 73 | 322 | 5.2 | 7.8 | 0.00 | 0.13 | 0.13 | 92 | 988.4 |
| 20260906100502 | 73 | 318 | 6.1 | 7.8 | 0.00 | 0.13 | 0.13 | 92 | 988.4 |
| 20260906100003 | 72 | 318 | 4.3 | 6.1 | 0.00 | 0.13 | 0.13 | 93 | 988.4 |
| 20260906095502 | 72 | 317 | 4.3 | 6.1 | 0.00 | 0.13 | 0.13 | 93 | 988.4 |
| 20260906095002 | 72 | 317 | 3.5 | 7.0 | 0.00 | 0.13 | 0.13 | 93 | 988.3 |
| 20260906094502 | 72 | 317 | 3.5 | 7.8 | 0.00 | 0.13 | 0.13 | 93 | 988.3 |
| 20260906094002 | 72 | 321 | 3.5 | 5.2 | 0.00 | 0.13 | 0.13 | 94 | 988.3 |
| 20260906093503 | 72 | 318 | 3.5 | 4.3 | 0.00 | 0.13 | 0.13 | 94 | 988.3 |
| 20260906093002 | 72 | 316 | 2.6 | 4.3 | 0.00 | 0.13 | 0.13 | 95 | 988.3 |
| 20260906092502 | 72 | 313 | 3.5 | 4.3 | 0.00 | 0.13 | 0.13 | 95 | 988.2 |
| 20260906092002 | 72 | 315 | 2.6 | 3.5 | 0.00 | 0.13 | 0.13 | 94 | 988.2 |
| 20260906091502 | 72 | 315 | 1.7 | 3.5 | 0.00 | 0.13 | 0.13 | 94 | 988.1 |
| 20260906091002 | 72 | 318 | 2.6 | 4.3 | 0.00 | 0.13 | 0.13 | 95 | 988.1 |
| 20260906090503 | 72 | 316 | 2.6 | 5.2 | 0.00 | 0.13 | 0.13 | 96 | 988.1 |
| 20260906090002 | 72 | 317 | 3.5 | 6.1 | 0.00 | 0.13 | 0.13 | 96 | 988.0 |
| 20260906085502 | 73 | 317 | 3.5 | 5.2 | 0.00 | 0.13 | 0.13 | 96 | 988.0 |
| 20260906085002 | 73 | 319 | 3.5 | 5.2 | 0.00 | 0.13 | 0.13 | 95 | 988.0 |
| 20260906084502 | 73 | 319 | 4.3 | 6.1 | 0.00 | 0.13 | 0.13 | 95 | 988.1 |
| 20260906084002 | 73 | 318 | 4.3 | 7.0 | 0.00 | 0.13 | 0.13 | 94 | 988.1 |
| 20260906083502 | 73 | 320 | 3.5 | 6.1 | 0.00 | 0.13 | 0.13 | 94 | 988.1 |
| 20260906083003 | 73 | 317 | 3.5 | 6.1 | 0.00 | 0.13 | 0.13 | 95 | 988.1 |
| 20260906082502 | 73 | 319 | 3.5 | 6.1 | 0.00 | 0.13 | 0.13 | 95 | 988.1 |
| 20260906082002 | 73 | 317 | 3.5 | 6.1 | 0.00 | 0.13 | 0.13 | 95 | 988.0 |
| 20260906081502 | 73 | 319 | 4.3 | 6.1 | 0.00 | 0.13 | 0.13 | 97 | 988.0 |
| 20260906081002 | 74 | 319 | 4.3 | 6.1 | 0.00 | 0.13 | 0.13 | 98 | 988.1 |
| 20260906080502 | 74 | 317 | 3.5 | 5.2 | 0.00 | 0.13 | 0.13 | 98 | 988.0 |
| 20260906080002 | 74 | 317 | 4.3 | 6.1 | 0.00 | 0.13 | 0.13 | 98 | 988.1 |
| 20260906075502 | 74 | 317 | 4.3 | 5.2 | 0.00 | 0.13 | 0.13 | 98 | 988.1 |
| 20260906075002 | 74 | 318 | 4.3 | 5.2 | 0.00 | 0.13 | 0.13 | 98 | 988.1 |
| 20260906074503 | 74 | 318 | 3.5 | 5.2 | 0.00 | 0.13 | 0.13 | 98 | 988.1 |
| 20260906074002 | 74 | 318 | 4.3 | 5.2 | 0.00 | 0.13 | 0.13 | 98 | 988.2 |
| 20260906073502 | 74 | 318 | 3.5 | 7.0 | 0.00 | 0.13 | 0.13 | 98 | 988.3 |
| 20260906073002 | 75 | 317 | 4.3 | 7.0 | 0.00 | 0.13 | 0.13 | 98 | 988.3 |
| 20260906072502 | 75 | 318 | 3.5 | 6.1 | 0.00 | 0.13 | 0.13 | 98 | 988.4 |
| 20260906072002 | 75 | 318 | 3.5 | 7.0 | 0.00 | 0.13 | 0.13 | 98 | 988.5 |
| 20260906071502 | 75 | 316 | 1.7 | 2.6 | 0.00 | 0.13 | 0.13 | 98 | 988.5 |
| 20260906071003 | 75 | 316 | 2.6 | 3.5 | 0.00 | 0.13 | 0.13 | 98 | 988.6 |
| 20260906070502 | 75 | 316 | 2.6 | 3.5 | 0.00 | 0.13 | 0.13 | 98 | 988.7 |
| 20260906070002 | 75 | 316 | 1.7 | 3.5 | 0.00 | 0.13 | 0.13 | 97 | 988.7 |
| 20260906065502 | 75 | 317 | 2.6 | 4.3 | 0.00 | 0.13 | 0.13 | 97 | 988.8 |
| 20260906065002 | 75 | 317 | 3.5 | 4.3 | 0.00 | 0.13 | 0.13 | 97 | 988.8 |
| 20260906064502 | 75 | 318 | 3.5 | 5.2 | 0.00 | 0.13 | 0.13 | 97 | 988.7 |
| 20260906064002 | 75 | 318 | 3.5 | 5.2 | 0.00 | 0.13 | 0.13 | 96 | 988.7 |
| 20260906063503 | 75 | 318 | 3.5 | 6.1 | 0.00 | 0.13 | 0.13 | 96 | 988.5 |
| 20260906063003 | 76 | 318 | 4.3 | 6.1 | 0.00 | 0.13 | 0.13 | 95 | 988.4 |
| 20260906062502 | 76 | 318 | 4.3 | 5.2 | 0.00 | 0.13 | 0.13 | 94 | 988.2 |
| 20260906062002 | 76 | 318 | 4.3 | 7.8 | 0.00 | 0.13 | 0.13 | 94 | 988.2 |
| 20260906061502 | 76 | 317 | 3.5 | 6.1 | 0.01 | 0.13 | 0.13 | 93 | 988.2 |
| 20260906061003 | 76 | 321 | 5.2 | 9.6 | 0.02 | 0.13 | 0.13 | 92 | 988.2 |
| 20260906060502 | 77 | 320 | 7.0 | 14.8 | 0.02 | 0.13 | 0.13 | 91 | 988.2 |
| 20260906060003 | 77 | 301 | 7.8 | 16.5 | 0.01 | 0.12 | 0.12 | 85 | 988.4 |
| 20260906055502 | 76 | 297 | 4.3 | 9.6 | 0.00 | 0.02 | 0.02 | 93 | 988.7 |
| 20260906055003 | 76 | 287 | 4.3 | 14.8 | 0.00 | 0.00 | 0.00 | 94 | 988.4 |
| 20260906054502 | 76 | 306 | 4.3 | 13.0 | 0.00 | 0.00 | 0.00 | 94 | 988.2 |
| 20260906054003 | 76 | 209 | 9.6 | 19.1 | 0.00 | 0.00 | 0.00 | 94 | 988.3 |
| 20260906053502 | 76 | 203 | 13.0 | 20.0 | 0.00 | 0.00 | 0.00 | 94 | 988.2 |
| 20260906053002 | 76 | 207 | 12.2 | 20.9 | 0.00 | 0.00 | 0.00 | 94 | 988.3 |
| 20260906052502 | 76 | 195 | 13.9 | 21.7 | 0.00 | 0.00 | 0.00 | 95 | 988.3 |
| 20260906052002 | 76 | 186 | 13.9 | 20.0 | 0.00 | 0.00 | 0.00 | 95 | 988.3 |
| 20260906051502 | 76 | 209 | 13.0 | 19.1 | 0.00 | 0.00 | 0.00 | 96 | 988.2 |
| 20260906051002 | 76 | 286 | 4.3 | 14.8 | 0.00 | 0.00 | 0.00 | 96 | 988.2 |
| 20260906050502 | 76 | 306 | 2.6 | 12.2 | 0.00 | 0.00 | 0.00 | 95 | 988.2 |
| 20260906050002 | 75 | 316 | 1.7 | 3.5 | 0.00 | 0.00 | 0.00 | 95 | 988.2 |
| 20260906045502 | 75 | 315 | 2.6 | 7.8 | 0.00 | 0.00 | 0.00 | 95 | 988.2 |
| 20260906045003 | 76 | 268 | 3.5 | 16.5 | 0.00 | 0.00 | 0.00 | 95 | 988.1 |
| 20260906044503 | 76 | 192 | 12.2 | 19.1 | 0.00 | 0.00 | 0.00 | 95 | 988.1 |
| 20260906044002 | 76 | 190 | 12.2 | 20.0 | 0.00 | 0.00 | 0.00 | 95 | 988.1 |
| 20260906043502 | 76 | 188 | 13.9 | 21.7 | 0.00 | 0.00 | 0.00 | 95 | 988.1 |
| 20260906043002 | 76 | 246 | 11.3 | 20.9 | 0.00 | 0.00 | 0.00 | 95 | 988.1 |
| 20260906042502 | 76 | 270 | 12.2 | 20.9 | 0.00 | 0.00 | 0.00 | 95 | 988.1 |
| 20260906042002 | 76 | 284 | 8.7 | 19.1 | 0.00 | 0.00 | 0.00 | 95 | 988.1 |
| 20260906041502 | 76 | 222 | 12.2 | 20.0 | 0.00 | 0.00 | 0.00 | 95 | 988.2 |
| 20260906041003 | 76 | 197 | 8.7 | 18.2 | 0.00 | 0.00 | 0.00 | 94 | 988.3 |
| 20260906040502 | 76 | 214 | 9.6 | 17.4 | 0.00 | 0.00 | 0.00 | 94 | 988.3 |
| 20260906040002 | 76 | 187 | 14.8 | 20.9 | 0.00 | 0.00 | 0.00 | 94 | 988.4 |
| 20260906035502 | 76 | 197 | 12.2 | 22.6 | 0.00 | 0.00 | 0.00 | 94 | 988.3 |
| 20260906035003 | 77 | 198 | 12.2 | 19.1 | 0.00 | 0.00 | 0.00 | 94 | 988.3 |
| 20260906034502 | 77 | 192 | 11.3 | 19.1 | 0.00 | 0.00 | 0.00 | 94 | 988.3 |
| 20260906034002 | 77 | 209 | 10.4 | 18.2 | 0.00 | 0.00 | 0.00 | 94 | 988.2 |
| 20260906033502 | 77 | 214 | 11.3 | 17.4 | 0.00 | 0.00 | 0.00 | 94 | 988.1 |
| 20260906033002 | 77 | 204 | 12.2 | 17.4 | 0.00 | 0.00 | 0.00 | 93 | 988.1 |
| 20260906032502 | 77 | 202 | 11.3 | 17.4 | 0.00 | 0.00 | 0.00 | 93 | 988.1 |
| 20260906032002 | 77 | 261 | 4.3 | 13.9 | 0.00 | 0.00 | 0.00 | 93 | 988.1 |
| 20260906031502 | 77 | 243 | 7.0 | 13.9 | 0.00 | 0.00 | 0.00 | 93 | 988.1 |
| 20260906031002 | 77 | 250 | 7.0 | 15.6 | 0.00 | 0.00 | 0.00 | 92 | 988.0 |
| 20260906030503 | 77 | 236 | 7.0 | 14.8 | 0.00 | 0.00 | 0.00 | 92 | 987.9 |
| 20260906030002 | 77 | 191 | 13.0 | 20.9 | 0.00 | 0.00 | 0.00 | 92 | 987.8 |
| 20260906025502 | 77 | 189 | 12.2 | 18.2 | 0.00 | 0.00 | 0.00 | 92 | 987.7 |
| 20260906025002 | 77 | 198 | 11.3 | 16.5 | 0.00 | 0.00 | 0.00 | 92 | 987.6 |
| 20260906024502 | 78 | 182 | 13.0 | 18.2 | 0.00 | 0.00 | 0.00 | 92 | 987.6 |
| 20260906024003 | 78 | 183 | 13.9 | 19.1 | 0.00 | 0.00 | 0.00 | 92 | 987.5 |
| 20260906023503 | 78 | 178 | 13.9 | 20.0 | 0.00 | 0.00 | 0.00 | 92 | 987.5 |
| 20260906023002 | 78 | 187 | 12.2 | 20.0 | 0.00 | 0.00 | 0.00 | 91 | 987.3 |
| 20260906022503 | 78 | 189 | 12.2 | 17.4 | 0.00 | 0.00 | 0.00 | 91 | 987.2 |
| 20260906022002 | 78 | 196 | 12.2 | 16.5 | 0.00 | 0.00 | 0.00 | 91 | 987.2 |
| 20260906021502 | 78 | 195 | 11.3 | 17.4 | 0.00 | 0.00 | 0.00 | 91 | 987.2 |
| 20260906021002 | 78 | 193 | 12.2 | 17.4 | 0.00 | 0.00 | 0.00 | 91 | 987.3 |
| 20260906020502 | 79 | 192 | 12.2 | 17.4 | 0.00 | 0.00 | 0.00 | 90 | 987.4 |
| 20260906020002 | 79 | 191 | 12.2 | 17.4 | 0.00 | 0.00 | 0.00 | 90 | 987.4 |
| 20260906015503 | 79 | 197 | 11.3 | 18.2 | 0.00 | 0.00 | 0.00 | 90 | 987.4 |
| 20260906015002 | 79 | 210 | 10.4 | 18.2 | 0.00 | 0.00 | 0.00 | 90 | 987.4 |
| 20260906014502 | 79 | 218 | 9.6 | 16.5 | 0.00 | 0.00 | 0.00 | 90 | 987.3 |
| 20260906014002 | 79 | 210 | 9.6 | 15.6 | 0.00 | 0.00 | 0.00 | 89 | 987.3 |
| 20260906013502 | 80 | 204 | 8.7 | 16.5 | 0.00 | 0.00 | 0.00 | 88 | 987.3 |
| 20260906013003 | 80 | 201 | 9.6 | 17.4 | 0.00 | 0.00 | 0.00 | 89 | 987.3 |
| 20260906012502 | 80 | 203 | 10.4 | 17.4 | 0.00 | 0.00 | 0.00 | 88 | 987.2 |
| 20260906012002 | 80 | 201 | 11.3 | 18.2 | 0.00 | 0.00 | 0.00 | 88 | 987.2 |
| 20260906011502 | 80 | 199 | 12.2 | 19.1 | 0.00 | 0.00 | 0.00 | 88 | 987.2 |
| 20260906011002 | 80 | 186 | 13.0 | 19.1 | 0.00 | 0.00 | 0.00 | 88 | 987.2 |
| 20260906010502 | 81 | 192 | 13.0 | 19.1 | 0.00 | 0.00 | 0.00 | 88 | 987.2 |
| 20260906010002 | 81 | 285 | 3.5 | 14.8 | 0.00 | 0.00 | 0.00 | 87 | 987.1 |
| 20260906005502 | 81 | 301 | 2.6 | 6.1 | 0.00 | 0.00 | 0.00 | 87 | 987.0 |
| 20260906005002 | 81 | 269 | 4.3 | 16.5 | 0.00 | 0.00 | 0.00 | 86 | 986.9 |
| 20260906004502 | 82 | 266 | 3.5 | 18.2 | 0.00 | 0.00 | 0.00 | 85 | 986.9 |
| 20260906004002 | 82 | 285 | 4.3 | 13.0 | 0.00 | 0.00 | 0.00 | 85 | 986.9 |
| 20260906003502 | 82 | 272 | 9.6 | 13.9 | 0.00 | 0.00 | 0.00 | 84 | 986.8 |
| 20260906003002 | 83 | 271 | 10.4 | 13.9 | 0.00 | 0.00 | 0.00 | 82 | 986.6 |
| 20260906002503 | 83 | 259 | 8.7 | 14.8 | 0.00 | 0.00 | 0.00 | 82 | 986.4 |
| 20260906002002 | 84 | 209 | 9.6 | 16.5 | 0.00 | 0.00 | 0.00 | 81 | 986.5 |
| 20260906001502 | 84 | 202 | 10.4 | 15.6 | 0.00 | 0.00 | 0.00 | 80 | 986.6 |
| 20260906001003 | 84 | 205 | 10.4 | 14.8 | 0.00 | 0.00 | 0.00 | 79 | 986.6 |
| 20260906000502 | 85 | 207 | 10.4 | 15.6 | 0.00 | 0.00 | 0.00 | 78 | 986.6 |
| 20260906000002 | 85 | 206 | 9.6 | 14.8 | 0.00 | 0.00 | 0.00 | 77 | 986.7 |
| 20260905235503 | 86 | 201 | 10.4 | 15.6 | 0.00 | 0.00 | 0.00 | 76 | 986.8 |
| 20260905235003 | 86 | 203 | 10.4 | 15.6 | 0.00 | 0.00 | 0.00 | 75 | 986.9 |
| 20260905234503 | 87 | 204 | 9.6 | 15.6 | 0.00 | 0.00 | 0.00 | 74 | 987.0 |
| 20260905234002 | 87 | 204 | 11.3 | 14.8 | 0.00 | 0.00 | 0.00 | 73 | 987.0 |
| 20260905233502 | 88 | 199 | 10.4 | 15.6 | 0.00 | 0.00 | 0.00 | 71 | 987.0 |
| 20260905233003 | 88 | 179 | 12.2 | 19.1 | 0.00 | 0.00 | 0.00 | 70 | 986.9 |
| 20260905232502 | 89 | 177 | 12.2 | 17.4 | 0.00 | 0.00 | 0.00 | 69 | 986.8 |
| 20260905232002 | 90 | 176 | 10.4 | 16.5 | 0.00 | 0.00 | 0.00 | 67 | 986.8 |
| 20260905231502 | 91 | 181 | 10.4 | 15.6 | 0.00 | 0.00 | 0.00 | 65 | 986.8 |
| 20260905231002 | 92 | 170 | 10.4 | 14.8 | 0.00 | 0.00 | 0.00 | 61 | 986.8 |
| 20260905230502 | 92 | 176 | 9.6 | 14.8 | 0.00 | 0.00 | 0.00 | 59 | 986.9 |
| 20260905230003 | 93 | 169 | 9.6 | 14.8 | 0.00 | 0.00 | 0.00 | 57 | 986.9 |
| 20260905225502 | 93 | 176 | 8.7 | 14.8 | 0.00 | 0.00 | 0.00 | 58 | 986.9 |
| 20260905225002 | 94 | 184 | 10.4 | 14.8 | 0.00 | 0.00 | 0.00 | 58 | 986.9 |
| 20260905224502 | 95 | 171 | 10.4 | 15.6 | 0.00 | 0.00 | 0.00 | 54 | 986.9 |
| 20260905224002 | 95 | 168 | 8.7 | 13.0 | 0.00 | 0.00 | 0.00 | 53 | 986.9 |
| 20260905223502 | 95 | 167 | 7.0 | 12.2 | 0.00 | 0.00 | 0.00 | 55 | 986.8 |
| 20260905223002 | 96 | 170 | 8.7 | 13.9 | 0.00 | 0.00 | 0.00 | 55 | 986.8 |
| 20260905222502 | 96 | 169 | 7.8 | 13.9 | 0.00 | 0.00 | 0.00 | 53 | 986.9 |
| 20260905222002 | 96 | 171 | 6.1 | 10.4 | 0.00 | 0.00 | 0.00 | 51 | 986.9 |
| 20260905221502 | 96 | 176 | 7.0 | 13.9 | 0.00 | 0.00 | 0.00 | 51 | 986.9 |
| 20260905221003 | 96 | 174 | 6.1 | 11.3 | 0.00 | 0.00 | 0.00 | 50 | 987.0 |
| 20260905220502 | 96 | 172 | 7.0 | 12.2 | 0.00 | 0.00 | 0.00 | 50 | 987.0 |
| 20260905220002 | 95 | 172 | 6.1 | 8.7 | 0.00 | 0.00 | 0.00 | 51 | 987.0 |
| 20260905215503 | 95 | 169 | 7.8 | 12.2 | 0.00 | 0.00 | 0.00 | 51 | 987.0 |
| 20260905215002 | 95 | 170 | 7.0 | 12.2 | 0.00 | 0.00 | 0.00 | 52 | 987.0 |
| 20260905214502 | 95 | 163 | 9.6 | 14.8 | 0.00 | 0.00 | 0.00 | 54 | 987.1 |
| 20260905214002 | 96 | 167 | 7.8 | 12.2 | 0.00 | 0.00 | 0.00 | 52 | 987.1 |
| 20260905213502 | 96 | 164 | 7.8 | 13.0 | 0.00 | 0.00 | 0.00 | 52 | 987.1 |
| 20260905213002 | 97 | 172 | 7.0 | 11.3 | 0.00 | 0.00 | 0.00 | 52 | 987.1 |
| 20260905212503 | 97 | 159 | 6.1 | 8.7 | 0.00 | 0.00 | 0.00 | 50 | 987.1 |
| 20260905212002 | 98 | 175 | 7.8 | 12.2 | 0.00 | 0.00 | 0.00 | 50 | 987.1 |
| 20260905211502 | 97 | 169 | 6.1 | 10.4 | 0.00 | 0.00 | 0.00 | 51 | 987.1 |
| 20260905211002 | 96 | 164 | 6.1 | 11.3 | 0.00 | 0.00 | 0.00 | 51 | 987.2 |
| 20260905210502 | 96 | 172 | 7.0 | 10.4 | 0.00 | 0.00 | 0.00 | 50 | 987.2 |
| 20260905210003 | 96 | 172 | 7.0 | 9.6 | 0.00 | 0.00 | 0.00 | 51 | 987.3 |
| 20260905205503 | 97 | 164 | 6.1 | 9.6 | 0.00 | 0.00 | 0.00 | 49 | 987.3 |
| 20260905205002 | 97 | 181 | 9.6 | 16.5 | 0.00 | 0.00 | 0.00 | 50 | 987.4 |
| 20260905204502 | 96 | 162 | 5.2 | 9.6 | 0.00 | 0.00 | 0.00 | 50 | 987.5 |
| 20260905204002 | 96 | 171 | 7.0 | 10.4 | 0.00 | 0.00 | 0.00 | 52 | 987.6 |
| 20260905203503 | 96 | 168 | 9.6 | 13.0 | 0.00 | 0.00 | 0.00 | 51 | 987.6 |
| 20260905203002 | 96 | 170 | 8.7 | 13.9 | 0.00 | 0.00 | 0.00 | 51 | 987.6 |
| 20260905202502 | 96 | 162 | 9.6 | 14.8 | 0.00 | 0.00 | 0.00 | 52 | 987.7 |
| 20260905202002 | 95 | 180 | 7.8 | 13.0 | 0.00 | 0.00 | 0.00 | 53 | 987.8 |
| 20260905201502 | 95 | 172 | 7.8 | 13.0 | 0.00 | 0.00 | 0.00 | 55 | 987.9 |
| 20260905201002 | 95 | 167 | 7.8 | 13.0 | 0.00 | 0.00 | 0.00 | 51 | 987.9 |
| 20260905200502 | 95 | 264 | 5.2 | 8.7 | 0.00 | 0.00 | 0.00 | 50 | 988.0 |
| 20260905200003 | 95 | 174 | 9.6 | 14.8 | 0.00 | 0.00 | 0.00 | 52 | 988.1 |
| 20260905195501 | 95 | 177 | 7.8 | 13.9 | 0.00 | 0.00 | 0.00 | 53 | 988.2 |
| 20260905195003 | 95 | 178 | 9.6 | 13.0 | 0.00 | 0.00 | 0.00 | 54 | 988.2 |
| 20260905194503 | 95 | 169 | 7.8 | 10.4 | 0.00 | 0.00 | 0.00 | 54 | 988.3 |
| 20260905194002 | 95 | 179 | 8.7 | 12.2 | 0.00 | 0.00 | 0.00 | 54 | 988.3 |
| 20260905193502 | 95 | 184 | 7.8 | 13.0 | 0.00 | 0.00 | 0.00 | 51 | 988.3 |
| 20260905193003 | 95 | 185 | 7.8 | 12.2 | 0.00 | 0.00 | 0.00 | 52 | 988.3 |
| 20260905192502 | 96 | 175 | 7.8 | 11.3 | 0.00 | 0.00 | 0.00 | 53 | 988.4 |
| 20260905192002 | 96 | 168 | 7.8 | 11.3 | 0.00 | 0.00 | 0.00 | 49 | 988.4 |
| 20260905191502 | 97 | 176 | 9.6 | 13.9 | 0.00 | 0.00 | 0.00 | 50 | 988.5 |
| 20260905191002 | 96 | 180 | 6.1 | 11.3 | 0.00 | 0.00 | 0.00 | 50 | 988.6 |
| 20260905190503 | 96 | 159 | 7.0 | 13.9 | 0.00 | 0.00 | 0.00 | 50 | 988.8 |
| 20260905190002 | 96 | 153 | 5.2 | 8.7 | 0.00 | 0.00 | 0.00 | 51 | 988.9 |
| 20260905185502 | 96 | 161 | 5.2 | 7.8 | 0.00 | 0.00 | 0.00 | 52 | 989.0 |
| 20260905185002 | 95 | 162 | 7.0 | 14.8 | 0.00 | 0.00 | 0.00 | 52 | 989.1 |
| 20260905184502 | 95 | 165 | 8.7 | 15.6 | 0.00 | 0.00 | 0.00 | 51 | 989.1 |
| 20260905184002 | 95 | 176 | 7.0 | 12.2 | 0.00 | 0.00 | 0.00 | 52 | 989.2 |
| 20260905183502 | 94 | 178 | 6.1 | 10.4 | 0.00 | 0.00 | 0.00 | 52 | 989.2 |
| 20260905183002 | 94 | 164 | 8.7 | 12.2 | 0.00 | 0.00 | 0.00 | 55 | 989.3 |
| 20260905182502 | 93 | 182 | 6.1 | 10.4 | 0.00 | 0.00 | 0.00 | 57 | 989.3 |
| 20260905182002 | 92 | 177 | 9.6 | 15.6 | 0.00 | 0.00 | 0.00 | 60 | 989.3 |
| 20260905181503 | 93 | 159 | 11.3 | 14.8 | 0.00 | 0.00 | 0.00 | 61 | 989.4 |
| 20260905181002 | 94 | 157 | 12.2 | 16.5 | 0.00 | 0.00 | 0.00 | 59 | 989.5 |
| 20260905180502 | 95 | 175 | 10.4 | 17.4 | 0.00 | 0.00 | 0.00 | 56 | 989.5 |
| 20260905180002 | 95 | 179 | 11.3 | 19.1 | 0.00 | 0.00 | 0.00 | 53 | 989.5 |
| 20260905175502 | 95 | 181 | 7.0 | 13.9 | 0.00 | 0.00 | 0.00 | 53 | 989.5 |
| 20260905175002 | 95 | 179 | 7.0 | 12.2 | 0.00 | 0.00 | 0.00 | 54 | 989.5 |
| 20260905174502 | 94 | 292 | 5.2 | 8.7 | 0.00 | 0.00 | 0.00 | 54 | 989.5 |
| 20260905174003 | 94 | 176 | 10.4 | 15.6 | 0.00 | 0.00 | 0.00 | 56 | 989.6 |
| 20260905173502 | 94 | 185 | 8.7 | 17.4 | 0.00 | 0.00 | 0.00 | 56 | 989.6 |
| 20260905173002 | 94 | 178 | 6.1 | 11.3 | 0.00 | 0.00 | 0.00 | 56 | 989.7 |
| 20260905172502 | 94 | 170 | 7.0 | 10.4 | 0.00 | 0.00 | 0.00 | 57 | 989.7 |
| 20260905172002 | 94 | 142 | 5.2 | 9.6 | 0.00 | 0.00 | 0.00 | 55 | 989.7 |
| 20260905171502 | 94 | 201 | 6.1 | 9.6 | 0.00 | 0.00 | 0.00 | 56 | 989.8 |
| 20260905171002 | 93 | 179 | 8.7 | 15.6 | 0.00 | 0.00 | 0.00 | 56 | 989.8 |
| 20260905170502 | 93 | 347 | 8.7 | 14.8 | 0.00 | 0.00 | 0.00 | 55 | 989.8 |
| 20260905170003 | 93 | 185 | 7.0 | 13.9 | 0.00 | 0.00 | 0.00 | 57 | 989.9 |
| 20260905165502 | 93 | 347 | 6.1 | 13.0 | 0.00 | 0.00 | 0.00 | 58 | 990.0 |
| 20260905165002 | 93 | 127 | 5.2 | 10.4 | 0.00 | 0.00 | 0.00 | 56 | 990.1 |
| 20260905164502 | 93 | 236 | 6.1 | 12.2 | 0.00 | 0.00 | 0.00 | 57 | 990.2 |
| 20260905164002 | 93 | 327 | 6.1 | 13.9 | 0.00 | 0.00 | 0.00 | 57 | 990.2 |
| 20260905163502 | 93 | 300 | 5.2 | 10.4 | 0.00 | 0.00 | 0.00 | 58 | 990.2 |
| 20260905163002 | 93 | 232 | 5.2 | 11.3 | 0.00 | 0.00 | 0.00 | 58 | 990.2 |
| 20260905162502 | 92 | 321 | 6.1 | 11.3 | 0.00 | 0.00 | 0.00 | 58 | 990.2 |
| 20260905162003 | 91 | 317 | 4.3 | 8.7 | 0.00 | 0.00 | 0.00 | 62 | 990.2 |
| 20260905161502 | 91 | 319 | 4.3 | 6.1 | 0.00 | 0.00 | 0.00 | 61 | 990.3 |
| 20260905161002 | 90 | 318 | 4.3 | 7.0 | 0.00 | 0.00 | 0.00 | 62 | 990.3 |
| 20260905160502 | 90 | 319 | 4.3 | 6.1 | 0.00 | 0.00 | 0.00 | 64 | 990.3 |
| 20260905160003 | 89 | 319 | 4.3 | 6.1 | 0.00 | 0.00 | 0.00 | 65 | 990.4 |
| 20260905155502 | 89 | 286 | 7.8 | 19.1 | 0.00 | 0.00 | 0.00 | 69 | 990.4 |
| 20260905155002 | 89 | 239 | 12.2 | 17.4 | 0.00 | 0.00 | 0.00 | 68 | 990.5 |
| 20260905154502 | 88 | 242 | 11.3 | 19.1 | 0.00 | 0.00 | 0.00 | 66 | 990.5 |
| 20260905154002 | 88 | 238 | 12.2 | 18.2 | 0.00 | 0.00 | 0.00 | 70 | 990.6 |
| 20260905153502 | 87 | 224 | 12.2 | 20.0 | 0.00 | 0.00 | 0.00 | 71 | 990.6 |
| 20260905153002 | 87 | 213 | 13.0 | 20.9 | 0.00 | 0.00 | 0.00 | 71 | 990.6 |
| 20260905152502 | 86 | 215 | 10.4 | 18.2 | 0.00 | 0.00 | 0.00 | 72 | 990.6 |
| 20260905152003 | 85 | 213 | 9.6 | 13.9 | 0.00 | 0.00 | 0.00 | 74 | 990.6 |
| 20260905151502 | 85 | 267 | 7.8 | 14.8 | 0.00 | 0.00 | 0.00 | 77 | 990.4 |
| 20260905151002 | 85 | 275 | 4.3 | 11.3 | 0.00 | 0.00 | 0.00 | 79 | 990.3 |
| 20260905150502 | 84 | 312 | 2.6 | 5.2 | 0.00 | 0.00 | 0.00 | 81 | 990.4 |
| 20260905150002 | 84 | 291 | 3.5 | 8.7 | 0.00 | 0.00 | 0.00 | 81 | 990.4 |
| 20260905145503 | 83 | 316 | 1.7 | 3.5 | 0.00 | 0.00 | 0.00 | 80 | 990.4 |
| 20260905145003 | 82 | 310 | 3.5 | 6.1 | 0.00 | 0.00 | 0.00 | 81 | 990.4 |
| 20260905144502 | 82 | 293 | 2.6 | 7.0 | 0.00 | 0.00 | 0.00 | 84 | 990.7 |
| 20260905144002 | 82 | 278 | 4.3 | 10.4 | 0.00 | 0.00 | 0.00 | 85 | 990.9 |
| 20260905143502 | 82 | 286 | 4.3 | 6.1 | 0.00 | 0.00 | 0.00 | 84 | 991.0 |
| 20260905143003 | 82 | 295 | 2.6 | 7.8 | 0.00 | 0.00 | 0.00 | 83 | 991.0 |
| 20260905142502 | 81 | 304 | 3.5 | 10.4 | 0.00 | 0.00 | 0.00 | 86 | 990.9 |
| 20260905142002 | 81 | 290 | 5.2 | 12.2 | 0.00 | 0.00 | 0.00 | 87 | 991.0 |
| 20260905141502 | 80 | 317 | 2.6 | 6.1 | 0.00 | 0.00 | 0.00 | 89 | 991.0 |
| 20260905141002 | 79 | 299 | 4.3 | 20.9 | 0.00 | 0.00 | 0.00 | 90 | 990.9 |
| 20260905140502 | 79 | 254 | 6.1 | 13.9 | 0.00 | 0.00 | 0.00 | 90 | 990.9 |
| 20260905140003 | 78 | 311 | 3.5 | 7.0 | 0.00 | 0.00 | 0.00 | 90 | 990.9 |
| 20260905135502 | 78 | 311 | 3.5 | 6.1 | 0.00 | 0.00 | 0.00 | 91 | 990.9 |
| 20260905135002 | 77 | 307 | 3.5 | 6.1 | 0.00 | 0.00 | 0.00 | 93 | 990.9 |
| 20260905134502 | 77 | 280 | 4.3 | 9.6 | 0.00 | 0.00 | 0.00 | 94 | 991.0 |
| 20260905134002 | 76 | 246 | 4.3 | 12.2 | 0.00 | 0.00 | 0.00 | 95 | 991.0 |
| 20260905133502 | 76 | 252 | 5.2 | 13.0 | 0.00 | 0.00 | 0.00 | 95 | 991.0 |
| 20260905133003 | 76 | 208 | 7.8 | 15.6 | 0.00 | 0.00 | 0.00 | 96 | 991.0 |
| 20260905132502 | 76 | 195 | 7.8 | 15.6 | 0.00 | 0.00 | 0.00 | 97 | 991.0 |
| 20260905132002 | 75 | 198 | 9.6 | 14.8 | 0.00 | 0.00 | 0.00 | 98 | 991.0 |
| 20260905131502 | 75 | 194 | 9.6 | 15.6 | 0.00 | 0.00 | 0.00 | 98 | 991.0 |